Lancaster, OH

1:01 PM EDT on July 24, 2017 (GMT -0400)
Fairfield County

Weather History for KLHQ - September, 2013

Change the Weather History Date:

Sunday, September 1, 2013

  Actual Average Record
Temperature  
Mean Temperature 75 °F -  
Max Temperature 82 °F 81 °F 101 °F (1953)
Min Temperature 68 °F 56 °F 39 °F (1967)
Cooling Degree Days 10    
Growing Degree Days 25 (Base 50)    
Moisture  
Dew Point 68 °F    
Average Humidity 83    
Maximum Humidity 97    
Minimum Humidity 62    
Precipitation  
Precipitation 0.01 in - - ()
Sea Level Pressure  
Sea Level Pressure 29.82 in    
Wind  
Wind Speed 2 mph (SSW)    
Max Wind Speed 8 mph    
Max Gust Speed -    
Visibility 8 miles    
Events Fog    
Averages and records for this station are not official NWS values.
T = Trace of Precipitation, MM = Missing Value Source: NWS Daily Summary

Daily Weather History Graph

Daily Weather History Graph

Search for Another Location

Airport or City:

Trip Planner

Search our weather history database for the weather conditions in past years. The results will help you decide how hot, cold, wet, or windy it might be!

Date:

Astronomy

Sep. 01, 2013 Rise Set
Actual Time 6:58 AM EDT 8:01 PM EDT
Civil Twilight 6:31 AM EDT 8:29 PM EDT
Nautical Twilight 5:58 AM EDT 9:01 PM EDT
Astronomical Twilight 5:23 AM EDT 9:36 PM EDT
Moon 3:19 AM EDT (9/1) 5:37 PM EDT (9/1)
Length of Visible Light 13h 57m
Length of Day
13h 02m
Waning Crescent, 14% of the Moon is Illuminated
Sep 1
Waning Crescent
Sep 5
New
Sep 12
First Quarter
Sep 19
Full
Sep 26
Last Quarter

Hourly Weather History & Observations

Time (EDT) Temp. Heat Index Dew Point Humidity Pressure Visibility Wind Dir Wind Speed Gust Speed Precip Events Conditions
12:53 AM 73.0 °F - 71.1 °F 93% 29.82 in 8.0 mi Calm Calm - N/A   Clear
1:53 AM 72.0 °F - 70.0 °F 93% 29.83 in 8.0 mi West 4.6 mph - N/A   Clear
2:53 AM 70.0 °F - 68.0 °F 93% 29.82 in 4.0 mi Calm Calm - N/A   Clear
3:30 AM 69.8 °F - 68.0 °F 94% 29.83 in 2.0 mi Calm Calm - N/A   Clear
3:37 AM 69.8 °F - 68.0 °F 94% 29.83 in 1.0 mi Calm Calm - N/A   Clear
3:53 AM 68.0 °F - 66.9 °F 96% 29.81 in 0.2 mi Calm Calm - N/A Fog Fog
4:05 AM 68.0 °F - 66.2 °F 94% 29.82 in 1.2 mi Calm Calm - N/A   Clear
4:17 AM 68.0 °F - 66.2 °F 94% 29.83 in 2.5 mi Calm Calm - N/A   Clear
4:24 AM 68.0 °F - 66.2 °F 94% 29.83 in 3.0 mi Calm Calm - N/A   Clear
4:53 AM 70.0 °F - 69.1 °F 97% 29.81 in 6.0 mi Calm Calm - N/A   Clear
5:53 AM 70.0 °F - 68.0 °F 93% 29.81 in 10.0 mi Calm Calm - N/A   Clear
6:53 AM 70.0 °F - 66.9 °F 90% 29.82 in 10.0 mi Calm Calm - N/A   Clear
7:53 AM 70.0 °F - 66.9 °F 90% 29.83 in 10.0 mi SSW 4.6 mph - N/A   Clear
8:53 AM 72.0 °F - 66.9 °F 84% 29.83 in 10.0 mi SW 3.5 mph - 0.01 in   Clear
9:53 AM 73.0 °F - 66.9 °F 81% 29.83 in 10.0 mi South 5.8 mph - N/A   Clear
10:53 AM 75.0 °F - 66.9 °F 76% 29.83 in 10.0 mi WSW 6.9 mph - N/A   Clear
11:53 AM 75.9 °F - 66.9 °F 74% 29.83 in 10.0 mi SSW 3.5 mph - N/A   Clear
12:29 PM 77.0 °F - 68.0 °F 74% 29.85 in 10.0 mi SW 6.9 mph - N/A   Mostly Cloudy
12:53 PM 78.1 °F - 69.1 °F 74% 29.83 in 10.0 mi SSW 6.9 mph - N/A   Overcast
1:28 PM 80.6 °F 83.9 °F 69.8 °F 70% 29.84 in 10.0 mi South 4.6 mph - N/A   Scattered Clouds
1:53 PM 79.0 °F - 68.0 °F 69% 29.83 in 10.0 mi SSW 8.1 mph - N/A   Scattered Clouds
2:53 PM 81.0 °F 84.1 °F 69.1 °F 67% 29.81 in 10.0 mi Variable 4.6 mph - N/A   Mostly Cloudy
3:53 PM 82.0 °F 84.9 °F 68.0 °F 62% 29.79 in 10.0 mi Variable 6.9 mph - N/A   Partly Cloudy
4:53 PM 82.0 °F 85.9 °F 70.0 °F 67% 29.78 in 10.0 mi SSW 5.8 mph - N/A   Mostly Cloudy
5:53 PM 82.0 °F 85.5 °F 69.1 °F 65% 29.77 in 10.0 mi SW 4.6 mph - N/A   Clear
6:53 PM 80.1 °F 82.7 °F 68.0 °F 67% 29.77 in 10.0 mi SSW 5.8 mph - N/A   Mostly Cloudy
7:53 PM 78.1 °F - 70.0 °F 76% 29.78 in 10.0 mi South 3.5 mph - N/A   Overcast
8:53 PM 75.0 °F - 70.0 °F 84% 29.79 in 10.0 mi South 3.5 mph - N/A   Clear
9:53 PM 73.9 °F - 69.1 °F 85% 29.80 in 10.0 mi South 3.5 mph - N/A   Clear
10:53 PM 71.1 °F - 68.0 °F 90% 29.81 in 10.0 mi Calm Calm - N/A   Clear
11:53 PM 73.0 °F - 69.1 °F 87% 29.81 in 10.0 mi Calm Calm - N/A   Mostly Cloudy